This is the latest recevied weather packets stored in our database for station/object N3WGC-14. If no packets are shown the sender has not sent any weather packets the latest 10 day(s).
| Time | Temp. | Humidity | Pressure | Rain* | Wind** | Luminosity | Snow |
|---|---|---|---|---|---|---|---|
| 1777514124 | 11.11° C | 91% | 1007.7 hPa | 1.27 mm | - | - | - |
| 1777513824 | 11.11° C | 92% | 1009 hPa | 0.76 mm | - | - | - |
| 1777513524 | 11.67° C | 92% | 1009.1 hPa | 0.51 mm | - | - | - |
| 1777513223 | 11.67° C | 91% | 1009.1 hPa | 0 mm | - | - | - |
| 1777512923 | 11.67° C | 91% | 1008.9 hPa | 0 mm | - | - | - |
| 1777512623 | 11.67° C | 91% | 1008.8 hPa | 0 mm | - | - | - |
| 1777512323 | 11.67° C | 91% | 1008.7 hPa | 0 mm | - | - | - |
| 1777512023 | 11.67° C | 91% | 1008.6 hPa | 0 mm | - | - | - |
| 1777511723 | 11.67° C | 90% | 1008.6 hPa | 0.25 mm | - | - | - |
| 1777511423 | 11.67° C | 89% | 1008.6 hPa | 0.25 mm | - | - | - |
| 1777511122 | 12.22° C | 89% | 1008.6 hPa | 0.51 mm | - | - | - |
| 1777510822 | 12.22° C | 89% | 1008.7 hPa | 0.51 mm | - | - | - |
| 1777510522 | 12.22° C | 90% | 1008.5 hPa | 0.76 mm | - | - | - |
| 1777510192 | 12.22° C | 91% | 1008.6 hPa | 1.02 mm | - | - | - |
| 1777509892 | 12.22° C | 91% | 1008.5 hPa | 1.27 mm | - | - | - |
| 1777509592 | 12.22° C | 93% | 1008.5 hPa | 1.52 mm | - | - | - |
| 1777509291 | 12.22° C | 94% | 1008.3 hPa | 1.52 mm | - | - | - |
| 1777508991 | 12.22° C | 94% | 1008.5 hPa | 1.78 mm | - | - | - |
| 1777508691 | 12.22° C | 94% | 1008.4 hPa | 2.29 mm | - | - | - |
| 1777508391 | 12.78° C | 94% | 1008.7 hPa | 3.05 mm | - | - | - |
| 1777508091 | 12.78° C | 95% | 1008.7 hPa | 3.56 mm | - | - | - |
| 1777507791 | 12.78° C | 95% | 1008.7 hPa | 3.81 mm | - | - | - |
| 1777507491 | 13.33° C | 96% | 1008.5 hPa | 3.81 mm | - | - | - |
| 1777507190 | 13.33° C | 96% | 1008.5 hPa | 4.57 mm | - | - | - |
| 1777506890 | 13.33° C | 97% | 1008.6 hPa | 4.57 mm | - | - | - |
* Rain latest hour (hover to see other rain measurements)
** Current wind speed in m/s (hover to see current wind gust speed)